Simultaneous Nadir Overpasses (SNOs) Predictions

Prediction of SNOs between AURA and NPP Satellite Orbit:

Table of predicted SNOs for the next 14.0 days since TLE Epoch: 1/23/2022
Index Date (AURA) Time (AURA) Lat,Lon (AURA) SZA (AURA ) Date (NPP) Time (NPP) Lat,Lon (NPP) SZA (NPP ) Distance(km) Time Diff (sec)
1 01/25/2022 11:25:00 79.62, -93.46 111.33 01/25/2022 11:24:52 79.62, -93.43 111.33 0.65 8
2 01/25/2022 12:14:23 -79.77, 75.31 68.90 01/25/2022 12:15:33 -79.77, 75.16 68.93 3.04 70
3 01/28/2022 02:52:09 -79.42,-146.61 69.02 01/28/2022 02:51:05 -79.42,-146.64 68.97 0.58 64
4 01/28/2022 03:41:27 79.72, 23.12 110.54 01/28/2022 03:41:40 79.72, 23.20 110.52 1.50 13
5 01/30/2022 19:08:35 -79.55, -29.86 69.90 01/30/2022 19:07:52 -79.55, -29.78 69.88 1.67 43
6 01/30/2022 19:57:57 79.69, 138.81 109.89 01/30/2022 19:58:32 79.69, 138.68 109.89 2.63 35
7 02/02/2022 11:25:04 -79.55, 86.04 70.63 02/02/2022 11:24:43 -79.55, 85.99 70.61 1.02 21
8 02/02/2022 12:14:22 79.84,-104.20 108.94 02/02/2022 12:15:18 79.84,-104.14 108.89 1.19 56
9 02/05/2022 02:54:30 72.67, 9.91 116.57 02/05/2022 02:53:17 73.00, 7.95 116.92 73.73 73
10 02/05/2022 03:41:30 -79.62,-157.61 71.50 02/05/2022 03:41:31 -79.61,-157.72 71.48 2.23 1



Historial Predications of SNOs between AURA and NPP
